NJE221 LYTV-LIRI

Flight info

Callsign NJE221
Flight time 0h 47m
Altitude 41000
Route KOFER DCT BUMOK DCT POLIT
Aircraft C700/M-SBDGHM1RWXY/LB2

Departure

Time 2026-04-20 18:46
Airport Tivat Airport (LYTV)

Arrival

Time 2026-04-20 19:33
Airport Salerno Costa d'Amalfi Airport (LIRI)
Time Latitude Longitude Altitude Speed Heading
2026-04-20 18:37 42.41083 18.71847 5 ft 0 kts 177°
2026-04-20 18:38 42.41072 18.71846 5 ft 0 kts 160°
2026-04-20 18:43 42.41068 18.71848 5 ft 4 kts 162°
2026-04-20 18:43 42.41073 18.71799 5 ft 13 kts 319°
2026-04-20 18:43 42.41155 18.71701 5 ft 18 kts 319°
2026-04-20 18:43 42.41239 18.71602 7 ft 14 kts 319°
2026-04-20 18:44 42.41325 18.71501 3 ft 9 kts 319°
2026-04-20 18:44 42.41356 18.71413 3 ft 13 kts 252°
2026-04-20 18:44 42.41275 18.71375 2 ft 9 kts 142°
2026-04-20 18:44 42.41266 18.71385 2 ft 0 kts 141°
2026-04-20 18:45 42.41163 18.71506 4 ft 66 kts 139°
2026-04-20 18:46 42.40583 18.72175 242 ft 137 kts 139°
2026-04-20 18:46 42.39750 18.73151 976 ft 179 kts 139°
2026-04-20 18:46 42.38600 18.74008 2120 ft 199 kts 161°
2026-04-20 18:46 42.37262 18.74514 3694 ft 203 kts 166°
2026-04-20 18:47 42.35830 18.75057 5178 ft 226 kts 166°
2026-04-20 18:47 42.34268 18.75743 6627 ft 248 kts 164°
2026-04-20 18:47 42.32618 18.76518 8260 ft 253 kts 163°
2026-04-20 18:47 42.30916 18.77315 9923 ft 263 kts 165°
2026-04-20 18:48 42.27286 18.78823 13244 ft 275 kts 175°
2026-04-20 18:48 42.25367 18.78907 14577 ft 283 kts 190°
2026-04-20 18:48 42.23379 18.78312 15507 ft 305 kts 203°
2026-04-20 18:49 42.21286 18.77456 16748 ft 320 kts 202°
2026-04-20 18:49 42.19122 18.76621 18279 ft 328 kts 202°
2026-04-20 18:49 42.16894 18.75762 19443 ft 337 kts 202°
2026-04-20 18:49 42.14616 18.74872 20591 ft 344 kts 202°
2026-04-20 18:50 42.12291 18.73961 21684 ft 351 kts 203°
2026-04-20 18:50 42.09923 18.73038 22792 ft 358 kts 203°
2026-04-20 18:50 42.07509 18.72099 23810 ft 365 kts 203°
2026-04-20 18:50 42.05054 18.71145 24739 ft 370 kts 203°
2026-04-20 18:51 42.02566 18.70179 25684 ft 374 kts 203°
2026-04-20 18:51 42.00047 18.69199 26597 ft 379 kts 203°
2026-04-20 18:51 41.97531 18.68103 27494 ft 379 kts 210°
2026-04-20 18:51 41.95209 18.66468 28400 ft 375 kts 219°
2026-04-20 18:52 41.93159 18.64402 29247 ft 374 kts 228°
2026-04-20 18:52 41.91323 18.61832 29329 ft 391 kts 238°
2026-04-20 18:52 41.89813 18.58787 30008 ft 390 kts 246°
2026-04-20 18:52 41.88549 18.55552 30679 ft 394 kts 249°
2026-04-20 18:53 41.87288 18.52271 31395 ft 397 kts 249°
2026-04-20 18:53 41.86011 18.48965 32072 ft 401 kts 248°
2026-04-20 18:53 41.84717 18.45631 32721 ft 405 kts 248°
2026-04-20 18:53 41.83408 18.42262 33348 ft 409 kts 248°
2026-04-20 18:54 41.82091 18.38869 33984 ft 411 kts 249°
2026-04-20 18:54 41.80766 18.35456 34454 ft 415 kts 249°
2026-04-20 18:54 41.79423 18.32005 34899 ft 420 kts 248°
2026-04-20 18:54 41.78067 18.28527 35322 ft 424 kts 248°
2026-04-20 18:55 41.76695 18.25012 35820 ft 426 kts 248°
2026-04-20 18:55 41.75320 18.21497 36388 ft 425 kts 248°
2026-04-20 18:55 41.73948 18.17988 36909 ft 426 kts 248°
2026-04-20 18:55 41.72562 18.14438 36975 ft 434 kts 248°
2026-04-20 18:56 41.69770 18.07337 36970 ft 428 kts 248°
2026-04-20 18:56 41.67020 18.00335 36970 ft 422 kts 248°
2026-04-20 18:57 41.64259 17.93320 36980 ft 436 kts 248°
2026-04-20 18:57 41.61401 17.86103 36980 ft 439 kts 247°
2026-04-20 18:58 41.58556 17.78919 36965 ft 436 kts 248°
2026-04-20 18:58 41.55712 17.71752 36971 ft 438 kts 248°
2026-04-20 18:59 41.52844 17.64550 36973 ft 441 kts 248°
2026-04-20 18:59 41.49967 17.57344 36970 ft 439 kts 248°
2026-04-20 19:00 41.47104 17.50184 36967 ft 436 kts 248°
2026-04-20 19:00 41.44247 17.43057 36966 ft 437 kts 248°
2026-04-20 19:01 41.41370 17.35901 36966 ft 439 kts 248°
2026-04-20 19:01 41.38487 17.28750 36964 ft 438 kts 248°
2026-04-20 19:02 41.35611 17.21626 36962 ft 436 kts 248°
2026-04-20 19:02 41.32740 17.14538 36958 ft 434 kts 248°
2026-04-20 19:03 41.29860 17.07434 36962 ft 440 kts 247°
2026-04-20 19:03 41.26943 17.00276 36964 ft 438 kts 247°
2026-04-20 19:04 41.24056 16.93191 36959 ft 436 kts 247°
2026-04-20 19:04 41.21150 16.86079 36962 ft 440 kts 247°
2026-04-20 19:05 41.18222 16.78940 36965 ft 439 kts 247°
2026-04-20 19:05 41.15307 16.71842 36960 ft 437 kts 247°
2026-04-20 19:06 41.12388 16.64747 36962 ft 440 kts 247°
2026-04-20 19:06 41.09443 16.57614 36963 ft 441 kts 247°
2026-04-20 19:07 41.06503 16.50510 36977 ft 438 kts 247°
2026-04-20 19:07 41.03577 16.43453 36972 ft 436 kts 247°
2026-04-20 19:08 40.99194 16.32915 36978 ft 439 kts 246°
2026-04-20 19:09 40.96237 16.25825 36979 ft 441 kts 246°
2026-04-20 19:09 40.93756 16.19892 36979 ft 439 kts 246°
2026-04-20 19:10 40.90809 16.12857 36974 ft 436 kts 246°
2026-04-20 19:10 40.87862 16.05836 36876 ft 439 kts 246°
2026-04-20 19:10 40.86381 16.02316 36308 ft 435 kts 246°
2026-04-20 19:11 40.84923 15.98866 35738 ft 426 kts 246°
2026-04-20 19:11 40.83492 15.95474 35203 ft 421 kts 246°
2026-04-20 19:11 40.82068 15.92084 34664 ft 425 kts 246°
2026-04-20 19:11 40.80624 15.88658 34097 ft 430 kts 246°
2026-04-20 19:12 40.79157 15.85199 33487 ft 432 kts 246°
2026-04-20 19:12 40.77691 15.81748 32918 ft 431 kts 246°
2026-04-20 19:12 40.76226 15.78292 32362 ft 432 kts 246°
2026-04-20 19:12 40.74757 15.74821 31790 ft 435 kts 246°
2026-04-20 19:13 40.73273 15.71329 31211 ft 439 kts 245°
2026-04-20 19:13 40.71722 15.67840 30620 ft 445 kts 242°
2026-04-20 19:13 40.69826 15.64577 30018 ft 452 kts 234°
2026-04-20 19:13 40.67742 15.61499 29423 ft 446 kts 233°
2026-04-20 19:14 40.65701 15.58467 28853 ft 438 kts 233°
2026-04-20 19:14 40.63699 15.55466 28289 ft 435 kts 233°
2026-04-20 19:14 40.61700 15.52478 27728 ft 434 kts 233°
2026-04-20 19:14 40.59701 15.49516 27162 ft 431 kts 233°
2026-04-20 19:15 40.57718 15.46583 26603 ft 426 kts 233°
2026-04-20 19:15 40.55765 15.43681 26062 ft 422 kts 233°
2026-04-20 19:15 40.53826 15.40800 25514 ft 419 kts 233°
2026-04-20 19:15 40.51898 15.37945 24963 ft 416 kts 233°
2026-04-20 19:16 40.49983 15.35116 24433 ft 413 kts 233°
2026-04-20 19:16 40.48083 15.32307 23896 ft 411 kts 233°
2026-04-20 19:16 40.46190 15.29511 23323 ft 408 kts 233°
2026-04-20 19:16 40.44315 15.26745 22792 ft 402 kts 233°
2026-04-20 19:17 40.42467 15.24023 22277 ft 399 kts 233°
2026-04-20 19:17 40.40622 15.21303 21754 ft 398 kts 232°
2026-04-20 19:17 40.38784 15.18596 21234 ft 397 kts 232°
2026-04-20 19:17 40.36948 15.15901 20714 ft 394 kts 232°
2026-04-20 19:18 40.35136 15.13243 20207 ft 389 kts 232°
2026-04-20 19:18 40.33342 15.10608 19706 ft 386 kts 232°
2026-04-20 19:18 40.31549 15.07975 19204 ft 387 kts 232°
2026-04-20 19:18 40.29757 15.05351 18694 ft 385 kts 232°
2026-04-20 19:19 40.27973 15.02742 18172 ft 383 kts 232°
2026-04-20 19:19 40.26208 15.00160 17659 ft 378 kts 232°
2026-04-20 19:19 40.24463 14.97612 17170 ft 374 kts 232°
2026-04-20 19:19 40.22735 14.95088 16684 ft 370 kts 232°
2026-04-20 19:20 40.21023 14.92589 16200 ft 367 kts 232°
2026-04-20 19:20 40.19380 14.90062 15724 ft 361 kts 237°
2026-04-20 19:20 40.18092 14.87277 15252 ft 356 kts 246°
2026-04-20 19:20 40.17184 14.84293 14786 ft 352 kts 255°
2026-04-20 19:21 40.16673 14.81229 14327 ft 348 kts 263°
2026-04-20 19:21 40.16546 14.78043 13867 ft 346 kts 272°
2026-04-20 19:21 40.16805 14.74977 13390 ft 343 kts 281°
2026-04-20 19:21 40.17426 14.71984 12944 ft 338 kts 288°
2026-04-20 19:22 40.18129 14.69144 12512 ft 317 kts 287°
2026-04-20 19:22 40.18769 14.66485 12106 ft 297 kts 287°
2026-04-20 19:22 40.19373 14.63976 11725 ft 282 kts 287°
2026-04-20 19:22 40.19953 14.61581 11371 ft 273 kts 287°
2026-04-20 19:23 40.20663 14.59290 11024 ft 273 kts 297°
2026-04-20 19:23 40.21749 14.57246 10640 ft 276 kts 309°
2026-04-20 19:23 40.23150 14.55527 10277 ft 277 kts 318°
2026-04-20 19:23 40.24630 14.53922 9917 ft 276 kts 318°
2026-04-20 19:24 40.26091 14.52312 9545 ft 274 kts 318°
2026-04-20 19:24 40.27667 14.50929 9180 ft 274 kts 330°
2026-04-20 19:24 40.29444 14.50038 8814 ft 274 kts 342°
2026-04-20 19:24 40.31337 14.49677 8462 ft 277 kts 354°
2026-04-20 19:25 40.33266 14.49877 8089 ft 277 kts
2026-04-20 19:25 40.35054 14.50608 7735 ft 262 kts 19°
2026-04-20 19:25 40.36600 14.51751 7398 ft 250 kts 31°
2026-04-20 19:25 40.37889 14.53217 7081 ft 241 kts 43°
2026-04-20 19:26 40.38954 14.54868 6774 ft 233 kts 47°
2026-04-20 19:26 40.39990 14.56472 6477 ft 229 kts 46°
2026-04-20 19:26 40.41022 14.58062 6168 ft 229 kts 46°
2026-04-20 19:26 40.42053 14.59661 5873 ft 230 kts 46°
2026-04-20 19:27 40.43111 14.61246 5560 ft 231 kts 42°
2026-04-20 19:27 40.44236 14.62753 5258 ft 231 kts 42°
2026-04-20 19:27 40.45351 14.64275 4953 ft 231 kts 43°
2026-04-20 19:27 40.46460 14.65793 4636 ft 230 kts 43°
2026-04-20 19:28 40.47563 14.67299 4336 ft 228 kts 43°
2026-04-20 19:28 40.48656 14.68790 4035 ft 225 kts 43°
2026-04-20 19:28 40.49674 14.70345 3743 ft 224 kts 50°
2026-04-20 19:28 40.50594 14.71935 3439 ft 211 kts 50°
2026-04-20 19:29 40.51478 14.73434 3199 ft 202 kts 49°
2026-04-20 19:29 40.52298 14.74818 2911 ft 183 kts 49°
2026-04-20 19:29 40.53060 14.76101 2670 ft 175 kts 49°
2026-04-20 19:29 40.53803 14.77356 2444 ft 174 kts 50°
2026-04-20 19:30 40.54544 14.78609 2214 ft 174 kts 50°
2026-04-20 19:30 40.55279 14.79853 1983 ft 171 kts 51°
2026-04-20 19:30 40.55963 14.81014 1805 ft 151 kts 52°
2026-04-20 19:30 40.56570 14.82045 1566 ft 138 kts 52°
2026-04-20 19:31 40.57144 14.83019 1382 ft 132 kts 52°
2026-04-20 19:31 40.57707 14.83975 1211 ft 132 kts 52°
2026-04-20 19:31 40.58267 14.84927 1038 ft 131 kts 53°
2026-04-20 19:31 40.58826 14.85877 860 ft 131 kts 53°
2026-04-20 19:32 40.59386 14.86822 688 ft 131 kts 52°
2026-04-20 19:32 40.59934 14.87761 531 ft 128 kts 54°
2026-04-20 19:32 40.60481 14.88698 347 ft 130 kts 52°
2026-04-20 19:32 40.61038 14.89643 168 ft 130 kts 53°
2026-04-20 19:33 40.61569 14.90537 78 ft 110 kts 53°
2026-04-20 19:33 40.61894 14.91086 80 ft 60 kts 52°
2026-04-20 19:33 40.62099 14.91437 81 ft 25 kts 62°
2026-04-20 19:33 40.62121 14.91593 79 ft 19 kts 81°
2026-04-20 19:34 40.62137 14.91747 78 ft 16 kts 89°
2026-04-20 19:34 40.62095 14.91814 78 ft 11 kts 144°
2026-04-20 19:34 40.62039 14.91875 78 ft 5 kts 127°
2026-04-20 19:34 40.62002 14.91917 75 ft 7 kts 142°
2026-04-20 19:35 40.62000 14.91919 78 ft 0 kts 142°